Regional Weather Roundup
Issued by NWS Portland, ME

Current Version | Previous Version | Graphics & Text | Print | Product List | Glossary On
Versions: 1 2 3 4 5 6 7 8 9 10 11 12 13 14 15 16 17 18 19 20 21 22 23 24 25 26 27 28 29 30 31 32 33 34 35 36 37 38 39 40 41 42 43 44 45 46 47 48 49 50
000
ASUS41 KGYX 011310
RWRGYX
WEATHER ROUNDUP FOR MAINE AND NEW HAMPSHIRE
NATIONAL WEATHER SERVICE GRAY ME
900 AM EDT SUN MAY 01 2016

MEZ002-005-006-010-012-015-018-020-021-024-026-027-029-011400-
MAINE

CITY           SKY/WX    TMP DP  RH WIND       PRES   REMARKS
PORTLAND       CLOUDY    49  37  63 S7        30.25S
SANFORD        MOSUNNY   48  34  57 S6        30.24S
BAR HARBOR     CLOUDY    49  36  61 S5        30.27F
WISCASSET      CLOUDY    48  40  73 CALM      30.27S
ROCKLAND       CLOUDY    47  40  76 SE6       30.27S
FRYEBURG       CLOUDY    46  34  62 CALM      30.23S
LEWISTONAUBURN CLOUDY    45  36  70 CALM      30.24S
AUGUSTA        CLOUDY    45  39  79 SE6       30.25S
WATERVILLE     CLOUDY    45  38  76 CALM      30.22F
BANGOR         CLOUDY    51  36  56 S5        30.26F
GREENVILLE       N/A     46  24  42 VRB5      30.19S
MILLINOCKET    MOSUNNY   46  24  42 VRB3      30.26S
HOULTON        MOSUNNY   49  24  37 VRB3      30.24F
PRESQUE ISLE   SUNNY     43  25  49 CALM      30.27R
FRENCHVILLE    SUNNY     46  24  42 CALM      30.24S
CARIBOU        SUNNY     47  25  42 NE5       30.25S
$$

NHZ002-005-008-009-011-012-014-011400-
NEW HAMPSHIRE

CITY           SKY/WX    TMP DP  RH WIND       PRES   REMARKS
PORTSMOUTH     CLOUDY    50  33  51 S6        30.23R
ROCHESTER      CLOUDY    48  33  56 CALM      30.23R
NASHUA         CLOUDY    51  28  41 VRB5      30.23S
MANCHESTER     CLOUDY    49  31  49 S3        30.22R
CONCORD        CLOUDY    47  34  60 CALM      30.23S
LACONIA        CLOUDY    46  34  61 CALM      30.23R
PLYMOUTH       CLOUDY    46  35  64 CALM      30.22S
BERLIN         CLOUDY    42  29  59 CALM      30.19F
WHITEFIELD     CLOUDY    45  33  63 CALM      30.17F
JAFFREY        CLOUDY    47  34  60 SW5       30.21F
KEENE          CLOUDY    48  36  61 S5        30.23S
LEBANON        LGT RAIN  49  37  63 N3        30.19F
MT WASHINGTON  CLOUDY    36  23  60 S8          N/A
$$

VTZ005-007-008-011400-
VERMONT

CITY           SKY/WX    TMP DP  RH WIND       PRES   REMARKS
ST JOHNSBURY     N/A     44  27  51 MISG      30.18S
MONTPELIER     CLOUDY    45  30  55 CALM      30.22S
BURLINGTON     PTSUNNY   49  26  41 SW6       30.17S
$$

MAZ007-012-024-CTZ003-RIZ002-NYZ038-NYZ072-011400-
SOUTHERN NEW ENGLAND AND NY

CITY           SKY/WX    TMP DP  RH WIND       PRES   REMARKS
BOSTON         CLOUDY    48  34  58 S6        30.26S
WORCESTER      CLOUDY    50  18  28 S7        30.23R
NANTUCKET      CLOUDY    49  33  54 E8        30.27S
PROVIDENCE     CLOUDY    49  38  65 S7        30.27R
HARTFORD       LGT RAIN  48  36  63 S3        30.23R
ALBANY         LGT RAIN  50  37  61 S6        30.18F
NEW YORK CITY  LGT RAIN  50  42  74 SE6       30.24R
$$

ANZ081-ANZ082-ANZ150-NHZ014-MEZ023>029-011400-
COASTAL MARINE OBSERVATIONS

STATION/POSITION TIME  TEMP    WIND        PRES    WAVE
                       AIR SEA DIR/SP/G            HT/PER
                 (UTC) (F)     (DEG/KT/KT) (MB)    (FT/S)
MOUNT DESERT ROC 1300   46     130/  6/  7 1025.8R
MATINICUS ROCK   1200   44     150/  8/  8 1024.8R
ISLE OF SHOALS   1200   46     170/ 10/ 10 1023.5S
CASHES LEDGE BUO 1250   45 45  160/  8/ 10 1024.7R   2/ 8
GEORGES BANK BUO 1250   47 45              1024.6F   7/10
$$

.............KEY..............
   WCI - WIND CHILL
   TC  - TEMPERATURE IN CELSIUS
   VSB - VISIBILITY IN MILES
   HX  - HEAT INDEX
   FAIR- INDICATES FEW OR NO CLOUDS BELOW 12,000 FT, WITH NO
         SIGNIFICANT WEATHER AND/OR OBSTRUCTIONS TO VISIBILITY.






USA.gov is the U.S. government's official web portal to all federal, state and local government web resources and services.